星链-34046 (STARLINK-34046)

导读

STARLINK-34046是由美国于2025年5月16日发射的星链卫星,星链是美国SpaceX公司打造的低轨卫星互联网星座,旨在为全球提供高速低延迟互联网服务,该卫星是星链星座扩容计划中的一员,进一步补充了星座覆盖密度,助力提升星座整体服务能力与覆盖范围。

Basic Information
目录编号:
64035
目录名称:
STARLINK-34046
国际标识:
2025-102P
轨道中心:
EARTH
卫星名称:
星链-34046
卫星全名:
星链-34046 (STARLINK-34046)
卫星状态:
在轨 (已飞行476 天)
发射日期:
2025-05-16 UTC
国别 :
美国 (US)
星等 :
--
Orbit Information
数据来源 国际轨道数据
星历时间: 2026-09-04T06:00:02+0800
9小时前
查看轨道信息
半长轴: 6855.184km
偏心率: 0.0003313
轨道倾角: 70.000°
近地点辐角 281.694°
升交点赤经 24.641°
平近点角 195.946°
近地点: 474.775km
远地点: 479.319km
周期: 94.143分钟
每日圈数: 15.295868
Detailed Information
固有亮度:
5
最大亮度:
2.5
卫星平台:
Starlink V1.0
覆盖范围:
全球
运营商:
太空探索技术公司
运营商所在国:
美国
制造商(研发单位):
太空探索技术公司
制造商所在国:
美国
使用方式:
暂无
Satellite Introduction
Starlink 计划是 SpaceX 推出的全球卫星互联网项目,通过发射低轨道卫星,为全球尤其是偏远地区提供高速、低延迟的互联网服务。自 2019 年起,Starlink 已部署数千颗卫星,旨在缩小全球数字鸿沟,推动互联网普及。该项目还为军事、航空等行业提供通信支持,带来广泛经济效益。
2D Orbit Map
3D Orbit Map
Orbit Altitude Analysis Chart
Orbit Inclination Analysis Chart
Orbit Comprehensive Analysis Chart
View Comprehensive Chart
Conjunction Data List
Event ID Objects TCA Miss Dist (km) Collision Risk Probability Collision Risk Index (CRI) Action
CDM_260906-150104-133606-403521
2026-09-06T
15:01:14+0000
0.932 km
远距离
3.175498E-5 中风险 0.65
CDM_260904-011106-403506-521421
2026-09-04T
01:11:38+0000
0.754 km
远距离
2.307096E-5 中风险 0.62
CDM_260904-024306-303706-403521
2026-09-04T
02:43:41+0000
1.506 km
极远距离
5.679235E-6 低风险 0.5
CDM_260903-142406-403506-810321
2026-09-03T
14:24:35+0000
1.633 km
极远距离
5.196698E-6 低风险 0.49
CDM_260901-213806-214306-403521
2026-09-01T
21:38:53+0000
2.459 km
极远距离
1.608771E-6 低风险 0.39
CDM_260903-160206-403506-812421
2026-09-03T
16:02:15+0000
2.658 km
极远距离
1.605344E-6 低风险 0.39
CDM_260903-150006-303706-403521
2026-09-03T
15:00:03+0000
2.471 km
极远距离
1.572474E-6 低风险 0.39